Hourly Weather Russko-Prohorovskiy

Today, 16 April, Friday

Time Temperature Precipitation Wind Pressure Humidity
00:00 +9°C° 0 mm 2 mps 747 mmHg 92%
01:00 +8°C° 0 mm 2 mps 747 mmHg 91%
02:00 +8°C° 0 mm 2 mps 747 mmHg 90%
03:00 +7°C° 0 mm 2 mps 747 mmHg 89%
04:00 +7°C° 0 mm 2 mps 747 mmHg 88%
05:00 +7°C° 0 mm 2 mps 748 mmHg 88%
06:00 +6°C° 0 mm 2 mps 748 mmHg 88%
07:00 +8°C° 0 mm 2 mps 748 mmHg 80%
08:00 +10°C° 0 mm 2 mps 748 mmHg 73%
09:00 +12°C° 0 mm 2 mps 749 mmHg 66%
10:00 +13°C° 0 mm 3 mps 748 mmHg 61%
11:00 +14°C° 0 mm 4 mps 748 mmHg 57%
12:00 +15°C° 0 mm 4 mps 748 mmHg 52%
13:00 +14°C° 0.1 mm 5 mps 748 mmHg 58%
14:00 +13°C° 0.1 mm 6 mps 749 mmHg 64%
15:00 +11°C° 0.1 mm 6 mps 749 mmHg 71%
16:00 +12°C° 0.4 mm 5 mps 749 mmHg 73%
17:00 +11°C° 0.4 mm 4 mps 749 mmHg 74%
18:00 +12°C° 0.4 mm 2 mps 749 mmHg 76%
19:00 +10°C° 0.1 mm 2 mps 749 mmHg 80%
20:00 +10°C° 0.1 mm 2 mps 749 mmHg 84%
21:00 +10°C° 0.1 mm 1 mps 749 mmHg 88%
22:00 +10°C° 0 mm 1 mps 749 mmHg 89%
23:00 +9°C° 0 mm 2 mps 749 mmHg 90%

Tomorrow, 17 April, Saturday

Time Temperature Precipitation Wind Pressure Humidity
00:00 +9°C° 0 mm 2 mps 749 mmHg 91%
01:00 +8°C° 0.2 mm 2 mps 749 mmHg 91%
02:00 +8°C° 0.2 mm 2 mps 749 mmHg 91%
03:00 +8°C° 0.2 mm 2 mps 749 mmHg 91%
04:00 +7°C° 0 mm 2 mps 749 mmHg 92%
05:00 +7°C° 0 mm 2 mps 749 mmHg 93%
06:00 +6°C° 0 mm 2 mps 749 mmHg 94%
07:00 +8°C° 0 mm 2 mps 749 mmHg 86%
08:00 +9°C° 0 mm 3 mps 750 mmHg 78%
09:00 +10°C° 0 mm 3 mps 750 mmHg 70%
10:00 +11°C° 0 mm 4 mps 750 mmHg 62%
11:00 +12°C° 0 mm 4 mps 750 mmHg 54%
12:00 +13°C° 0 mm 4 mps 750 mmHg 45%
13:00 +13°C° 0 mm 4 mps 750 mmHg 44%
14:00 +13°C° 0 mm 4 mps 750 mmHg 44%
15:00 +14°C° 0 mm 5 mps 750 mmHg 43%
16:00 +13°C° 0 mm 4 mps 750 mmHg 46%
17:00 +13°C° 0 mm 4 mps 750 mmHg 50%
18:00 +12°C° 0 mm 4 mps 750 mmHg 53%
19:00 +11°C° 0 mm 3 mps 751 mmHg 58%
20:00 +9°C° 0 mm 3 mps 751 mmHg 63%
21:00 +8°C° 0 mm 2 mps 751 mmHg 68%
22:00 +9°C° 0 mm 1 mps 751 mmHg 69%
23:00 +8°C° 0 mm 1 mps 751 mmHg 70%

Day after tomorrow, 18 April, Sunday

Time Temperature Precipitation Wind Pressure Humidity
00:00 +8°C° 0 mm 1 mps 751 mmHg 71%
01:00 +8°C° 0 mm 1 mps 751 mmHg 71%
02:00 +7°C° 0 mm 1 mps 751 mmHg 71%
03:00 +7°C° 0 mm 1 mps 750 mmHg 71%
04:00 +7°C° 0 mm 1 mps 750 mmHg 72%
05:00 +7°C° 0 mm 1 mps 750 mmHg 73%
06:00 +7°C° 0 mm 1 mps 750 mmHg 74%
07:00 +8°C° 0 mm 1 mps 750 mmHg 69%
08:00 +10°C° 0 mm 1 mps 750 mmHg 64%
09:00 +10°C° 0 mm 2 mps 750 mmHg 59%
10:00 +12°C° 0 mm 2 mps 750 mmHg 56%
11:00 +13°C° 0 mm 2 mps 749 mmHg 52%
12:00 +14°C° 0 mm 2 mps 749 mmHg 48%
13:00 +14°C° 0 mm 2 mps 749 mmHg 46%
14:00 +15°C° 0 mm 2 mps 749 mmHg 44%
15:00 +15°C° 0 mm 2 mps 748 mmHg 41%
16:00 +15°C° 0 mm 2 mps 748 mmHg 44%
17:00 +15°C° 0 mm 2 mps 748 mmHg 46%
18:00 +15°C° 0 mm 2 mps 748 mmHg 48%
19:00 +13°C° 0 mm 2 mps 748 mmHg 54%
20:00 +12°C° 0 mm 1 mps 748 mmHg 59%
21:00 +11°C° 0 mm 1 mps 748 mmHg 65%
22:00 +11°C° 0 mm 1 mps 748 mmHg 67%
23:00 +11°C° 0 mm 1 mps 748 mmHg 69%

19 April, Monday

Time Temperature Precipitation Wind Pressure Humidity
00:00 +9°C° 0 mm 0 mps 748 mmHg 71%
01:00 +10°C° 0 mm 1 mps 748 mmHg 70%
02:00 +10°C° 0 mm 1 mps 747 mmHg 70%
03:00 +10°C° 0 mm 1 mps 747 mmHg 69%
04:00 +9°C° 0 mm 2 mps 747 mmHg 71%
05:00 +9°C° 0 mm 2 mps 747 mmHg 72%
06:00 +9°C° 0 mm 2 mps 747 mmHg 74%
07:00 +10°C° 0 mm 2 mps 747 mmHg 75%
08:00 +10°C° 0 mm 2 mps 747 mmHg 75%
09:00 +10°C° 0 mm 2 mps 747 mmHg 75%
10:00 +10°C° 0 mm 3 mps 747 mmHg 75%
11:00 +11°C° 0 mm 3 mps 747 mmHg 76%
12:00 +11°C° 0 mm 3 mps 746 mmHg 76%
13:00 +11°C° 0 mm 4 mps 746 mmHg 76%
14:00 +11°C° 0 mm 4 mps 746 mmHg 77%
15:00 +11°C° 0 mm 4 mps 746 mmHg 77%
16:00 +11°C° 0 mm 4 mps 746 mmHg 79%
17:00 +11°C° 0 mm 4 mps 745 mmHg 81%
18:00 +12°C° 0 mm 4 mps 745 mmHg 83%
19:00 +11°C° 0 mm 4 mps 745 mmHg 86%
20:00 +9°C° 0 mm 5 mps 744 mmHg 88%
21:00 +9°C° 0 mm 5 mps 744 mmHg 91%
22:00 +9°C° 0.6 mm 5 mps 743 mmHg 93%
23:00 +9°C° 0.6 mm 5 mps 743 mmHg 94%

20 April, Tuesday

Time Temperature Precipitation Wind Pressure Humidity
00:00 +9°C° 0.6 mm 5 mps 742 mmHg 96%
01:00 +9°C° 0.8 mm 6 mps 741 mmHg 96%
02:00 +9°C° 0.8 mm 6 mps 741 mmHg 97%
03:00 +9°C° 0.8 mm 6 mps 740 mmHg 97%
04:00 +10°C° 0.7 mm 8 mps 739 mmHg 95%
05:00 +10°C° 0.7 mm 9 mps 738 mmHg 94%
06:00 +11°C° 0.7 mm 10 mps 736 mmHg 92%
07:00 +11°C° 0.1 mm 10 mps 736 mmHg 88%
08:00 +11°C° 0.1 mm 11 mps 736 mmHg 84%
09:00 +11°C° 0.1 mm 11 mps 736 mmHg 80%
10:00 +11°C° 1.2 mm 10 mps 737 mmHg 82%
11:00 +12°C° 1.2 mm 9 mps 737 mmHg 85%
12:00 +12°C° 1.2 mm 8 mps 737 mmHg 87%
13:00 +12°C° 0.1 mm 8 mps 738 mmHg 82%
14:00 +14°C° 0.1 mm 7 mps 738 mmHg 76%
15:00 +15°C° 0.1 mm 7 mps 739 mmHg 70%
16:00 +14°C° 0.2 mm 7 mps 739 mmHg 70%
17:00 +14°C° 0.2 mm 7 mps 739 mmHg 71%
18:00 +12°C° 0.2 mm 7 mps 740 mmHg 72%
19:00 +11°C° 0.2 mm 7 mps 740 mmHg 76%
20:00 +10°C° 0.2 mm 7 mps 741 mmHg 80%
21:00 +9°C° 0.2 mm 7 mps 741 mmHg 84%
22:00 +9°C° 0.1 mm 7 mps 742 mmHg 83%
23:00 +8°C° 0.1 mm 7 mps 742 mmHg 83%

21 April, Wednesday

Time Temperature Precipitation Wind Pressure Humidity
00:00 +8°C° 0.1 mm 7 mps 742 mmHg 82%
01:00 +8°C° 0 mm 7 mps 742 mmHg 82%
02:00 +7°C° 0 mm 8 mps 743 mmHg 82%
03:00 +6°C° 0 mm 8 mps 743 mmHg 83%
04:00 +6°C° 0 mm 8 mps 743 mmHg 82%
05:00 +6°C° 0 mm 8 mps 743 mmHg 81%
06:00 +6°C° 0 mm 8 mps 744 mmHg 81%
07:00 +7°C° 0 mm 8 mps 744 mmHg 77%
08:00 +9°C° 0 mm 8 mps 745 mmHg 74%
09:00 +10°C° 0 mm 8 mps 746 mmHg 71%
10:00 +10°C° 0 mm 8 mps 746 mmHg 68%
11:00 +11°C° 0 mm 8 mps 746 mmHg 66%
12:00 +11°C° 0 mm 7 mps 747 mmHg 64%
13:00 +12°C° 0 mm 7 mps 747 mmHg 63%
14:00 +13°C° 0 mm 6 mps 747 mmHg 63%
15:00 +13°C° 0 mm 6 mps 748 mmHg 62%
16:00 +13°C° 0.1 mm 6 mps 748 mmHg 64%
17:00 +13°C° 0.1 mm 5 mps 748 mmHg 66%
18:00 +13°C° 0.1 mm 5 mps 748 mmHg 68%
19:00 +12°C° 0 mm 4 mps 749 mmHg 74%
20:00 +10°C° 0 mm 3 mps 749 mmHg 79%
21:00 +9°C° 0 mm 3 mps 750 mmHg 85%
22:00 +9°C° 0 mm 2 mps 750 mmHg 86%
23:00 +8°C° 0 mm 2 mps 750 mmHg 88%
Show more